Weather History for Silver City, NM

Change the Weather History Date:

Thursday, September 20, 2012

  Actual Average (KDMN) Record (KDMN)
Temperature  
Mean Temperature 70 °F 72 °F  
Max Temperature 86 °F 87 °F 97 °F (1954)
Min Temperature 53 °F 57 °F 43 °F (1971)
Cooling Degree Days 4    
Growing Degree Days 20 (Base 50)    
Moisture  
Dew Point 25 °F    
Average Humidity 22    
Maximum Humidity 35    
Minimum Humidity 10    
Precipitation  
Precipitation 0.00 in 0.04 in 0.28 in (2007)
Month to date precipitation 0.88  
Year to date precipitation 8.47  
Sea Level Pressure  
Sea Level Pressure 30.20 in    
Wind  
Wind Speed 9 mph (NW)    
Max Wind Speed 14 mph    
Max Gust Speed 22 mph    
Visibility 10 miles    
Events      
T = Trace of Precipitation, MM = Missing Value Source: NWS Daily Summary

Daily Weather History Graph

Daily Weather History Graph

Search for Another Location

Airport:

Trip Planner

Search our weather history database for the weather conditions in past years. The results will help you decide how hot, cold, wet, or windy it might be!

Date:

Astronomy

Sep. 20, 2012 Rise Set
Actual Time 6:59 AM MDT 7:11 PM MDT
Civil Twilight 6:35 AM MDT 7:35 PM MDT
Nautical Twilight 6:06 AM MDT 8:04 PM MDT
Astronomical Twilight 5:37 AM MDT 8:33 PM MDT
Moon 12:02 PM MDT (9/20) 10:35 PM MDT (9/20)
Length of Visible Light 13h 00m
Length of Day
12h 11m
Waxing Crescent, 27% of the Moon is Illuminated
Sep 20
Waxing Crescent
Sep 22
First Quarter
Sep 29
Full
Oct 8
Last Quarter
Oct 15
New

Hourly Weather History & Observations

Time (MDT) Temp. Dew Point Humidity Pressure Visibility Wind Dir Wind Speed Gust Speed Precip Events Conditions
12:15 AM 59.0 °F 26.6 °F 29% 30.25 in 10.0 mi North 6.9 mph - N/A   Clear
12:35 AM 57.2 °F 26.6 °F 31% 30.25 in 10.0 mi North 9.2 mph - N/A   Clear
12:55 AM 55.4 °F 26.6 °F 33% 30.25 in 10.0 mi NW 8.1 mph - N/A   Clear
1:15 AM 55.4 °F 26.6 °F 33% 30.25 in 10.0 mi North 8.1 mph - N/A   Clear
1:35 AM 57.2 °F 26.6 °F 31% 30.25 in 10.0 mi North 9.2 mph - N/A   Clear
1:55 AM 55.4 °F 26.6 °F 33% 30.25 in 10.0 mi North 8.1 mph - N/A   Clear
2:15 AM 57.2 °F 26.6 °F 31% 30.25 in 10.0 mi North 11.5 mph - N/A   Clear
2:35 AM 55.4 °F 26.6 °F 33% 30.25 in 10.0 mi NW 6.9 mph - N/A   Clear
2:55 AM 53.6 °F 26.6 °F 35% 30.24 in 10.0 mi North 10.4 mph - N/A   Clear
3:15 AM 55.4 °F 24.8 °F 31% 30.24 in 10.0 mi North 10.4 mph - N/A   Clear
3:35 AM 55.4 °F 26.6 °F 33% 30.24 in 10.0 mi North 10.4 mph - N/A   Clear
4:35 AM 55.4 °F 26.6 °F 33% 30.24 in 10.0 mi North 9.2 mph - N/A   Clear
4:55 AM 55.4 °F 26.6 °F 33% 30.24 in 10.0 mi North 9.2 mph - N/A   Clear
5:15 AM 55.4 °F 26.6 °F 33% 30.24 in 10.0 mi North 10.4 mph - N/A   Clear
5:35 AM 53.6 °F 26.6 °F 35% 30.24 in 10.0 mi North 10.4 mph - N/A   Clear
5:55 AM 55.4 °F 26.6 °F 33% 30.24 in 10.0 mi North 9.2 mph - N/A   Clear
6:15 AM 55.4 °F 26.6 °F 33% 30.24 in 10.0 mi North 10.4 mph - N/A   Clear
6:35 AM 53.6 °F 26.6 °F 35% 30.24 in 10.0 mi North 9.2 mph - N/A   Clear
6:55 AM 55.4 °F 26.6 °F 33% 30.24 in 10.0 mi North 8.1 mph - N/A   Clear
7:15 AM 55.4 °F 26.6 °F 33% 30.24 in 10.0 mi North 10.4 mph - N/A   Clear
8:35 AM 68.0 °F 28.4 °F 23% 30.26 in 10.0 mi NNW 4.6 mph - N/A   Clear
8:55 AM 71.6 °F 28.4 °F 20% 30.26 in 10.0 mi NW 3.5 mph - N/A   Clear
9:15 AM 75.2 °F 26.6 °F 17% 30.26 in 10.0 mi WNW 4.6 mph - N/A   Clear
9:35 AM 75.2 °F 26.6 °F 17% 30.27 in 10.0 mi NW 3.5 mph - N/A   Clear
1:55 PM 84.2 °F 23.0 °F 11% 30.20 in 10.0 mi North 5.8 mph - N/A   Clear
2:15 PM 86.0 °F 24.8 °F 11% 30.19 in 10.0 mi West 5.8 mph - N/A   Clear
2:35 PM 86.0 °F 23.0 °F 10% 30.19 in 10.0 mi West 10.4 mph - N/A   Clear
2:55 PM 84.2 °F 24.8 °F 11% 30.18 in 10.0 mi WSW 6.9 mph - N/A   Clear
3:15 PM 86.0 °F 24.8 °F 11% 30.17 in 10.0 mi NW 12.7 mph 17.3 mph N/A   Clear
3:35 PM 86.0 °F 24.8 °F 11% 30.17 in 10.0 mi West 6.9 mph 17.3 mph N/A   Clear
3:55 PM 86.0 °F 23.0 °F 10% 30.16 in 10.0 mi West 12.7 mph 21.9 mph N/A   Clear
4:15 PM 86.0 °F 24.8 °F 11% 30.16 in 10.0 mi West 9.2 mph 20.7 mph N/A   Clear
4:35 PM 86.0 °F 23.0 °F 10% 30.15 in 10.0 mi WNW 13.8 mph 19.6 mph N/A   Clear
4:55 PM 84.2 °F 23.0 °F 11% 30.15 in 10.0 mi SW 8.1 mph - N/A   Clear
5:15 PM 84.2 °F 21.2 °F 10% 30.15 in 10.0 mi West 8.1 mph 17.3 mph N/A   Clear
5:35 PM 84.2 °F 21.2 °F 10% 30.15 in 10.0 mi SW 9.2 mph 19.6 mph N/A   Clear
5:55 PM 84.2 °F 23.0 °F 11% 30.15 in 10.0 mi WNW 12.7 mph 19.6 mph N/A   Clear
6:15 PM 82.4 °F 23.0 °F 11% 30.15 in 10.0 mi West 12.7 mph 18.4 mph N/A   Clear
6:35 PM 82.4 °F 23.0 °F 11% 30.14 in 10.0 mi West 12.7 mph - N/A   Clear
6:55 PM 80.6 °F 23.0 °F 12% 30.15 in 10.0 mi West 9.2 mph - N/A   Clear
7:15 PM 78.8 °F 23.0 °F 13% 30.15 in 10.0 mi West 8.1 mph - N/A   Clear
7:35 PM 77.0 °F 23.0 °F 13% 30.15 in 10.0 mi West 8.1 mph - N/A   Clear
7:55 PM 75.2 °F 24.8 °F 15% 30.15 in 10.0 mi West 8.1 mph - N/A   Clear
8:15 PM 71.6 °F 24.8 °F 17% 30.15 in 10.0 mi West 6.9 mph - N/A   Clear
8:35 PM 68.0 °F 23.0 °F 18% 30.16 in 10.0 mi NW 4.6 mph - N/A   Clear
8:55 PM 64.4 °F 23.0 °F 21% 30.17 in 10.0 mi NNW 4.6 mph - N/A   Clear
9:15 PM 62.6 °F 23.0 °F 22% 30.17 in 10.0 mi NNW 8.1 mph - N/A   Clear
9:35 PM 64.4 °F 24.8 °F 22% 30.18 in 10.0 mi NNW 10.4 mph - N/A   Clear
9:55 PM 64.4 °F 24.8 °F 22% 30.18 in 10.0 mi North 9.2 mph - N/A   Clear
10:15 PM 64.4 °F 26.6 °F 24% 30.18 in 10.0 mi North 10.4 mph - N/A   Clear
10:35 PM 62.6 °F 26.6 °F 26% 30.19 in 10.0 mi North 10.4 mph - N/A   Clear
10:55 PM 64.4 °F 26.6 °F 24% 30.19 in 10.0 mi North 10.4 mph - N/A   Clear
11:15 PM 62.6 °F 26.6 °F 26% 30.19 in 10.0 mi North 9.2 mph - N/A   Clear
11:35 PM 64.4 °F 26.6 °F 24% 30.19 in 10.0 mi North 10.4 mph - N/A   Clear
11:55 PM 62.6 °F 26.6 °F 26% 30.18 in 10.0 mi North 10.4 mph - N/A   Clear